Location: Remedello Sotto
(45.2500°N, 10.3667°E)
Time: 22:40:20
(UTC+00:00)

FENGYUN 1C DEB - Visible Passes

Search period start: 21 February 2024 00:00
Search period end: 02 March 2024 00:00
Orbit: 761 x 826 km, 98.3° (Epoch: 18 February)

Date Brightness Start Highest point End Pass type
(mag) Time Alt. Az. Time Alt. Az. Time Alt. Az.
21 Feb ? 20:05:12 14° N 20:05:12 14° N 20:06:00 10° N visible
22 Feb ? 19:36:17 14° NNE 19:36:17 14° NNE 19:37:10 10° N visible
23 Feb ? 19:07:21 12° NNE 19:07:21 12° NNE 19:08:01 10° NNE visible
23 Feb ? 20:48:09 14° NNW 20:48:09 14° NNW 20:48:47 10° NNW visible
24 Feb ? 20:19:13 17° N 20:19:13 17° N 20:20:19 10° N visible
25 Feb ? 19:50:16 18° N 19:50:16 18° N 19:51:37 10° N visible
26 Feb ? 19:21:18 16° NNE 19:21:18 16° NNE 19:22:38 10° N visible
26 Feb ? 21:02:06 14° NNW 21:02:06 14° NNW 21:02:53 10° NNW visible
27 Feb ? 18:52:20 12° NE 18:52:20 12° NE 18:53:07 10° NNE visible
27 Feb ? 20:33:08 19° NNW 20:33:08 19° NNW 20:34:31 10° NNW visible
28 Feb ? 20:04:09 21° N 20:04:09 21° N 20:05:54 10° N visible
29 Feb ? 19:35:10 20° NNE 19:35:10 20° NNE 19:37:02 10° N visible
29 Feb ? 21:15:57 14° NW 21:15:57 14° NW 21:16:49 10° NNW visible
01 Mar ? 19:06:10 16° NE 19:06:10 16° NE 19:07:50 10° NNE visible
01 Mar ? 20:46:58 20° NNW 20:46:58 20° NNW 20:48:33 10° NNW visible
